LAN2456 SARI-SABE

Flight info

Callsign LAN2456
Flight time 1h 24m
Altitude 34000
Route NAIDE UT667 GEMSU UN785 GUA UZ129 PAGON PAGON9R
Aircraft A20N/M-SDE2E3FGHIRWXY/LB1

Departure

Time 2026-04-23 17:48
Airport Cataratas Del Iguazú International Airport (SARI)

Arrival

Time 2026-04-23 19:13
Airport Aeroparque Jorge Newbery (SABE)
Time Latitude Longitude Altitude Speed Heading
2026-04-23 17:34 -25.73238 -54.47641 930 ft 0 kts 26°
2026-04-23 17:41 -25.73240 -54.47642 930 ft 3 kts 26°
2026-04-23 17:41 -25.73263 -54.47656 926 ft 4 kts 42°
2026-04-23 17:42 -25.73275 -54.47685 929 ft 1 kts 114°
2026-04-23 17:44 -25.73278 -54.47677 930 ft 4 kts 114°
2026-04-23 17:44 -25.73296 -54.47633 928 ft 9 kts 116°
2026-04-23 17:44 -25.73461 -54.47484 926 ft 20 kts 141°
2026-04-23 17:45 -25.73582 -54.47387 930 ft 22 kts 144°
2026-04-23 17:45 -25.73808 -54.47145 931 ft 24 kts 116°
2026-04-23 17:45 -25.73890 -54.46964 930 ft 29 kts 114°
2026-04-23 17:46 -25.74089 -54.46486 924 ft 34 kts 114°
2026-04-23 17:46 -25.74174 -54.46275 928 ft 32 kts 115°
2026-04-23 17:46 -25.74271 -54.46047 927 ft 29 kts 115°
2026-04-23 17:47 -25.74309 -54.45938 929 ft 14 kts 82°
2026-04-23 17:47 -25.74320 -54.45847 928 ft 14 kts 144°
2026-04-23 17:47 -25.74317 -54.45936 926 ft 30 kts 294°
2026-04-23 17:48 -25.74124 -54.46399 926 ft 100 kts 295°
2026-04-23 17:48 -25.73754 -54.47288 928 ft 152 kts 295°
2026-04-23 17:48 -25.73252 -54.48467 1157 ft 175 kts 295°
2026-04-23 17:48 -25.72722 -54.49685 1776 ft 178 kts 298°
2026-04-23 17:49 -25.72165 -54.50939 2358 ft 184 kts 299°
2026-04-23 17:49 -25.71577 -54.52239 2930 ft 192 kts 299°
2026-04-23 17:49 -25.70965 -54.53587 3468 ft 201 kts 299°
2026-04-23 17:49 -25.70311 -54.55071 3809 ft 229 kts 293°
2026-04-23 17:50 -25.70091 -54.56879 4412 ft 248 kts 266°
2026-04-23 17:50 -25.71800 -54.60465 5620 ft 289 kts 220°
2026-04-23 17:50 -25.73567 -54.61604 6366 ft 299 kts 201°
2026-04-23 17:51 -25.75579 -54.62220 7267 ft 300 kts 192°
2026-04-23 17:51 -25.77565 -54.62650 8423 ft 292 kts 193°
2026-04-23 17:51 -25.81505 -54.63973 10238 ft 297 kts 202°
2026-04-23 17:52 -25.83444 -54.64872 10656 ft 317 kts 205°
2026-04-23 17:52 -25.87701 -54.67066 11429 ft 350 kts 206°
2026-04-23 17:52 -25.89915 -54.68228 12220 ft 354 kts 206°
2026-04-23 17:53 -25.94422 -54.70580 13755 ft 362 kts 207°
2026-04-23 17:53 -25.96715 -54.71773 14430 ft 366 kts 207°
2026-04-23 17:53 -25.99032 -54.72979 15087 ft 370 kts 207°
2026-04-23 17:54 -26.01376 -54.74199 15732 ft 373 kts 207°
2026-04-23 17:54 -26.03740 -54.75430 16359 ft 377 kts 207°
2026-04-23 17:54 -26.08547 -54.77934 17600 ft 385 kts 207°
2026-04-23 17:55 -26.13444 -54.80486 18736 ft 392 kts 207°
2026-04-23 17:55 -26.15920 -54.81777 19297 ft 394 kts 207°
2026-04-23 17:55 -26.18409 -54.83075 19856 ft 396 kts 208°
2026-04-23 17:56 -26.20911 -54.84381 20382 ft 399 kts 208°
2026-04-23 17:56 -26.25974 -54.87025 21438 ft 404 kts 208°
2026-04-23 17:56 -26.28523 -54.88358 21976 ft 406 kts 208°
2026-04-23 17:57 -26.31089 -54.89700 22494 ft 409 kts 209°
2026-04-23 17:57 -26.33671 -54.91052 23014 ft 411 kts 209°
2026-04-23 17:57 -26.38890 -54.93786 23955 ft 417 kts 209°
2026-04-23 17:58 -26.41520 -54.95165 24377 ft 419 kts 210°
2026-04-23 17:58 -26.44163 -54.96551 24798 ft 421 kts 210°
2026-04-23 17:58 -26.46825 -54.97948 25198 ft 424 kts 210°
2026-04-23 17:58 -26.49498 -54.99352 25613 ft 426 kts 210°
2026-04-23 17:59 -26.52184 -55.00763 26005 ft 428 kts 210°
2026-04-23 17:59 -26.54889 -55.02185 26387 ft 430 kts 210°
2026-04-23 17:59 -26.57601 -55.03612 26790 ft 432 kts 211°
2026-04-23 17:59 -26.60329 -55.05048 27166 ft 434 kts 211°
2026-04-23 18:00 -26.63069 -55.06490 27539 ft 436 kts 211°
2026-04-23 18:00 -26.65820 -55.07940 27886 ft 438 kts 211°
2026-04-23 18:00 -26.68570 -55.09390 28248 ft 440 kts 211°
2026-04-23 18:00 -26.71361 -55.10862 28601 ft 442 kts 211°
2026-04-23 18:01 -26.74146 -55.12332 28962 ft 443 kts 211°
2026-04-23 18:01 -26.76906 -55.13789 29284 ft 445 kts 212°
2026-04-23 18:01 -26.79717 -55.15274 29596 ft 448 kts 212°
2026-04-23 18:01 -26.82534 -55.16763 29938 ft 449 kts 212°
2026-04-23 18:02 -26.84446 -55.17774 30154 ft 450 kts 212°
2026-04-23 18:02 -26.88212 -55.19767 30514 ft 453 kts 212°
2026-04-23 18:02 -26.91068 -55.21280 30795 ft 455 kts 212°
2026-04-23 18:02 -26.93936 -55.22799 31089 ft 457 kts 212°
2026-04-23 18:03 -26.96814 -55.24325 31431 ft 457 kts 212°
2026-04-23 18:03 -26.99684 -55.25846 31816 ft 456 kts 212°
2026-04-23 18:03 -27.02552 -55.27366 32191 ft 456 kts 212°
2026-04-23 18:03 -27.05413 -55.28885 32557 ft 455 kts 212°
2026-04-23 18:04 -27.08277 -55.30407 32881 ft 455 kts 212°
2026-04-23 18:04 -27.11134 -55.31926 33237 ft 454 kts 212°
2026-04-23 18:04 -27.13991 -55.33446 33583 ft 454 kts 212°
2026-04-23 18:04 -27.16840 -55.34962 33909 ft 453 kts 212°
2026-04-23 18:05 -27.19686 -55.36479 34010 ft 454 kts 212°
2026-04-23 18:05 -27.25438 -55.39555 34018 ft 467 kts 212°
2026-04-23 18:06 -27.31321 -55.42693 34016 ft 467 kts 212°
2026-04-23 18:06 -27.37196 -55.45829 34021 ft 467 kts 212°
2026-04-23 18:07 -27.43055 -55.48964 34020 ft 466 kts 212°
2026-04-23 18:07 -27.48911 -55.52100 34025 ft 465 kts 212°
2026-04-23 18:08 -27.53763 -55.54702 34021 ft 465 kts 212°
2026-04-23 18:08 -27.60181 -55.58165 34024 ft 462 kts 214°
2026-04-23 18:09 -27.65577 -55.61959 34021 ft 456 kts 220°
2026-04-23 18:09 -27.70866 -55.65925 34030 ft 456 kts 220°
2026-04-23 18:10 -27.76140 -55.69877 34030 ft 455 kts 221°
2026-04-23 18:10 -27.81420 -55.73848 34030 ft 456 kts 221°
2026-04-23 18:11 -27.86687 -55.77817 34033 ft 459 kts 220°
2026-04-23 18:11 -27.92012 -55.81833 34032 ft 460 kts 220°
2026-04-23 18:12 -27.97348 -55.85861 34035 ft 462 kts 220°
2026-04-23 18:12 -28.02704 -55.89910 34040 ft 463 kts 220°
2026-04-23 18:13 -28.08070 -55.93972 34039 ft 465 kts 220°
2026-04-23 18:13 -28.13459 -55.98054 34041 ft 466 kts 220°
2026-04-23 18:14 -28.17976 -56.01479 34046 ft 465 kts 220°
2026-04-23 18:14 -28.24259 -56.06250 34048 ft 465 kts 220°
2026-04-23 18:15 -28.29598 -56.10309 34055 ft 464 kts 220°
2026-04-23 18:15 -28.34953 -56.14387 34058 ft 463 kts 221°
2026-04-23 18:16 -28.40302 -56.18464 34057 ft 463 kts 221°
2026-04-23 18:16 -28.45651 -56.22547 34060 ft 462 kts 221°
2026-04-23 18:17 -28.53651 -56.28663 34069 ft 462 kts 221°
2026-04-23 18:17 -28.58974 -56.32737 34064 ft 461 kts 221°
2026-04-23 18:18 -28.64261 -56.36790 34074 ft 461 kts 221°
2026-04-23 18:18 -28.69573 -56.40866 34074 ft 461 kts 222°
2026-04-23 18:19 -28.74888 -56.44949 34073 ft 460 kts 222°
2026-04-23 18:19 -28.80192 -56.49029 34085 ft 460 kts 222°
2026-04-23 18:20 -28.85496 -56.53114 34080 ft 460 kts 223°
2026-04-23 18:20 -28.90791 -56.57198 34085 ft 459 kts 223°
2026-04-23 18:21 -28.96071 -56.61278 34088 ft 459 kts 223°
2026-04-23 18:21 -29.00476 -56.64683 34084 ft 459 kts 223°
2026-04-23 18:22 -29.05757 -56.68771 34085 ft 458 kts 223°
2026-04-23 18:22 -29.11038 -56.72864 34088 ft 458 kts 223°
2026-04-23 18:23 -29.18938 -56.78997 34091 ft 457 kts 223°
2026-04-23 18:24 -29.26820 -56.85128 34088 ft 456 kts 223°
2026-04-23 18:25 -29.34670 -56.91245 34094 ft 455 kts 223°
2026-04-23 18:25 -29.39906 -56.95332 34097 ft 454 kts 223°
2026-04-23 18:26 -29.45132 -56.99417 34100 ft 454 kts 223°
2026-04-23 18:26 -29.50320 -57.03478 34103 ft 455 kts 223°
2026-04-23 18:27 -29.55559 -57.07584 34106 ft 457 kts 223°
2026-04-23 18:27 -29.60568 -57.11515 34102 ft 458 kts 223°
2026-04-23 18:28 -29.65846 -57.15662 34099 ft 460 kts 222°
2026-04-23 18:28 -29.71139 -57.19825 34103 ft 462 kts 222°
2026-04-23 18:29 -29.76454 -57.24011 34105 ft 464 kts 222°
2026-04-23 18:29 -29.81798 -57.28225 34102 ft 466 kts 222°
2026-04-23 18:30 -29.87152 -57.32452 34100 ft 467 kts 222°
2026-04-23 18:30 -29.92511 -57.36688 34108 ft 467 kts 223°
2026-04-23 18:31 -29.97880 -57.40937 34107 ft 468 kts 223°
2026-04-23 18:31 -30.03256 -57.45199 34107 ft 469 kts 223°
2026-04-23 18:32 -30.08639 -57.49471 34111 ft 471 kts 223°
2026-04-23 18:32 -30.14045 -57.53768 34112 ft 471 kts 223°
2026-04-23 18:33 -30.19452 -57.58072 34114 ft 473 kts 223°
2026-04-23 18:33 -30.24942 -57.62289 34117 ft 480 kts 218°
2026-04-23 18:34 -30.31174 -57.65399 34120 ft 497 kts 205°
2026-04-23 18:34 -30.37833 -57.67696 34123 ft 499 kts 205°
2026-04-23 18:35 -30.44486 -57.70022 34130 ft 500 kts 206°
2026-04-23 18:35 -30.51160 -57.72357 34121 ft 501 kts 206°
2026-04-23 18:36 -30.57847 -57.74695 34120 ft 502 kts 206°
2026-04-23 18:36 -30.64544 -57.77040 34130 ft 503 kts 206°
2026-04-23 18:37 -30.71253 -57.79392 34127 ft 504 kts 206°
2026-04-23 18:37 -30.77978 -57.81734 34131 ft 504 kts 206°
2026-04-23 18:38 -30.84704 -57.84076 34128 ft 505 kts 206°
2026-04-23 18:38 -30.91433 -57.86425 34131 ft 505 kts 206°
2026-04-23 18:39 -30.98159 -57.88778 34127 ft 505 kts 206°
2026-04-23 18:39 -31.04887 -57.91134 34136 ft 505 kts 207°
2026-04-23 18:40 -31.11616 -57.93495 34126 ft 504 kts 207°
2026-04-23 18:40 -31.18290 -57.95839 34127 ft 504 kts 207°
2026-04-23 18:41 -31.24999 -57.98201 34126 ft 503 kts 207°
2026-04-23 18:41 -31.31703 -58.00564 34132 ft 502 kts 207°
2026-04-23 18:42 -31.38397 -58.02927 34135 ft 502 kts 207°
2026-04-23 18:42 -31.45084 -58.05291 34133 ft 502 kts 207°
2026-04-23 18:43 -31.51759 -58.07654 34135 ft 501 kts 207°
2026-04-23 18:43 -31.58437 -58.10022 34128 ft 500 kts 207°
2026-04-23 18:44 -31.65101 -58.12389 34133 ft 500 kts 207°
2026-04-23 18:44 -31.71758 -58.14757 34132 ft 500 kts 207°
2026-04-23 18:45 -31.78415 -58.17129 34133 ft 499 kts 207°
2026-04-23 18:45 -31.85063 -58.19499 34129 ft 499 kts 207°
2026-04-23 18:46 -31.91705 -58.21872 34128 ft 499 kts 207°
2026-04-23 18:46 -31.98303 -58.24233 34132 ft 498 kts 207°
2026-04-23 18:47 -32.04942 -58.26612 34135 ft 498 kts 207°
2026-04-23 18:47 -32.11572 -58.28991 34143 ft 497 kts 207°
2026-04-23 18:48 -32.18199 -58.31373 34141 ft 497 kts 207°
2026-04-23 18:48 -32.24799 -58.33745 34135 ft 490 kts 207°
2026-04-23 18:49 -32.31368 -58.36117 34143 ft 497 kts 207°
2026-04-23 18:49 -32.37990 -58.38508 34142 ft 496 kts 207°
2026-04-23 18:50 -32.43480 -58.40490 34138 ft 496 kts 207°
2026-04-23 18:50 -32.51206 -58.43284 34137 ft 496 kts 207°
2026-04-23 18:51 -32.57805 -58.45675 34139 ft 496 kts 207°
2026-04-23 18:51 -32.64359 -58.48055 34136 ft 495 kts 207°
2026-04-23 18:51 -32.67743 -58.49009 34141 ft 508 kts 198°
2026-04-23 18:52 -32.71252 -58.49592 34145 ft 510 kts 198°
2026-04-23 18:52 -32.78275 -58.50708 34143 ft 508 kts 197°
2026-04-23 18:52 -32.81772 -58.51267 33967 ft 507 kts 198°
2026-04-23 18:53 -32.85268 -58.51833 33709 ft 508 kts 198°
2026-04-23 18:53 -32.88778 -58.52406 33319 ft 509 kts 197°
2026-04-23 18:53 -32.92272 -58.52973 32578 ft 504 kts 197°
2026-04-23 18:53 -32.95737 -58.53536 31584 ft 502 kts 197°
2026-04-23 18:54 -32.99134 -58.54091 30982 ft 498 kts 197°
2026-04-23 18:54 -33.02611 -58.54657 30437 ft 492 kts 197°
2026-04-23 18:54 -33.05992 -58.55210 29724 ft 488 kts 197°
2026-04-23 18:54 -33.09354 -58.55764 28988 ft 485 kts 197°
2026-04-23 18:55 -33.12670 -58.56307 28460 ft 477 kts 197°
2026-04-23 18:55 -33.15936 -58.56843 27875 ft 471 kts 197°
2026-04-23 18:55 -33.19169 -58.57375 27289 ft 465 kts 197°
2026-04-23 18:55 -33.22355 -58.57900 26718 ft 460 kts 196°
2026-04-23 18:56 -33.24439 -58.58245 26339 ft 456 kts 196°
2026-04-23 18:56 -33.28619 -58.58936 25539 ft 450 kts 195°
2026-04-23 18:56 -33.31706 -58.59447 24987 ft 445 kts 195°
2026-04-23 18:56 -33.34762 -58.59953 24421 ft 441 kts 195°
2026-04-23 18:57 -33.37787 -58.60454 23851 ft 437 kts 195°
2026-04-23 18:57 -33.40746 -58.60944 23198 ft 433 kts 194°
2026-04-23 18:57 -33.43702 -58.61431 22673 ft 425 kts 194°
2026-04-23 18:57 -33.46611 -58.61910 22106 ft 419 kts 194°
2026-04-23 18:58 -33.49481 -58.62385 21534 ft 414 kts 194°
2026-04-23 18:58 -33.52317 -58.62854 20984 ft 409 kts 194°
2026-04-23 18:58 -33.55119 -58.63318 20418 ft 404 kts 194°
2026-04-23 18:58 -33.57884 -58.63777 19857 ft 400 kts 194°
2026-04-23 18:59 -33.60628 -58.64233 19260 ft 397 kts 193°
2026-04-23 18:59 -33.63345 -58.64684 18721 ft 393 kts 193°
2026-04-23 18:59 -33.66030 -58.65130 18154 ft 388 kts 193°
2026-04-23 18:59 -33.68691 -58.65572 17603 ft 383 kts 193°
2026-04-23 19:00 -33.71311 -58.66008 17053 ft 378 kts 192°
2026-04-23 19:00 -33.73900 -58.66438 16513 ft 373 kts 192°
2026-04-23 19:00 -33.76453 -58.66864 15977 ft 369 kts 192°
2026-04-23 19:00 -33.78984 -58.67287 15454 ft 365 kts 191°
2026-04-23 19:01 -33.81482 -58.67705 14924 ft 362 kts 191°
2026-04-23 19:01 -33.83978 -58.68122 14367 ft 360 kts 191°
2026-04-23 19:01 -33.86450 -58.68536 13873 ft 357 kts 190°
2026-04-23 19:01 -33.88900 -58.68944 13331 ft 353 kts 190°
2026-04-23 19:02 -33.90504 -58.69211 12996 ft 350 kts 190°
2026-04-23 19:02 -33.93743 -58.69751 12323 ft 363 kts 190°
2026-04-23 19:02 -33.96296 -58.70181 11783 ft 375 kts 190°
2026-04-23 19:02 -33.98877 -58.70614 11242 ft 372 kts 189°
2026-04-23 19:03 -34.01434 -58.71040 10715 ft 372 kts 189°
2026-04-23 19:03 -34.04004 -58.71469 10353 ft 374 kts 189°
2026-04-23 19:03 -34.06448 -58.71876 10124 ft 376 kts 189°
2026-04-23 19:03 -34.09046 -58.72307 9969 ft 376 kts 189°
2026-04-23 19:04 -34.11648 -58.72740 9742 ft 378 kts 189°
2026-04-23 19:04 -34.14263 -58.73177 9238 ft 379 kts 189°
2026-04-23 19:04 -34.16836 -58.73608 8745 ft 378 kts 189°
2026-04-23 19:04 -34.19446 -58.74047 8246 ft 380 kts 189°
2026-04-23 19:05 -34.21986 -58.74473 7980 ft 361 kts 189°
2026-04-23 19:05 -34.24427 -58.74880 7739 ft 338 kts 189°
2026-04-23 19:05 -34.25935 -58.75132 7601 ft 323 kts 189°
2026-04-23 19:05 -34.28119 -58.75498 7409 ft 303 kts 189°
2026-04-23 19:06 -34.30148 -58.75838 7206 ft 286 kts 189°
2026-04-23 19:06 -34.32111 -58.75760 6673 ft 284 kts 166°
2026-04-23 19:06 -34.33854 -58.74668 6082 ft 285 kts 140°
2026-04-23 19:06 -34.35266 -58.72997 5599 ft 282 kts 134°
2026-04-23 19:07 -34.36590 -58.71262 5103 ft 281 kts 133°
2026-04-23 19:07 -34.37459 -58.70116 4933 ft 278 kts 134°
2026-04-23 19:07 -34.38775 -58.68410 4621 ft 275 kts 134°
2026-04-23 19:07 -34.40527 -58.66189 4200 ft 272 kts 135°
2026-04-23 19:08 -34.41393 -58.65101 3874 ft 270 kts 135°
2026-04-23 19:08 -34.42691 -58.63477 3385 ft 266 kts 135°
2026-04-23 19:08 -34.43954 -58.61900 3093 ft 255 kts 133°
2026-04-23 19:08 -34.45056 -58.60303 3002 ft 238 kts 129°
2026-04-23 19:09 -34.46026 -58.58783 2936 ft 220 kts 128°
2026-04-23 19:09 -34.46919 -58.57351 2811 ft 206 kts 127°
2026-04-23 19:09 -34.47751 -58.56002 2696 ft 192 kts 127°
2026-04-23 19:09 -34.48515 -58.54744 2439 ft 180 kts 126°
2026-04-23 19:10 -34.49216 -58.53572 2199 ft 163 kts 126°
2026-04-23 19:10 -34.49847 -58.52494 1981 ft 151 kts 124°
2026-04-23 19:10 -34.50439 -58.51441 1780 ft 150 kts 123°
2026-04-23 19:10 -34.51019 -58.50403 1582 ft 148 kts 123°
2026-04-23 19:11 -34.51595 -58.49369 1383 ft 148 kts 123°
2026-04-23 19:11 -34.52169 -58.48339 1190 ft 147 kts 123°
2026-04-23 19:11 -34.52738 -58.47315 994 ft 147 kts 123°
2026-04-23 19:11 -34.53306 -58.46304 817 ft 144 kts 122°
2026-04-23 19:12 -34.53876 -58.45283 632 ft 147 kts 122°
2026-04-23 19:12 -34.54435 -58.44253 415 ft 146 kts 122°
2026-04-23 19:12 -34.54984 -58.43244 191 ft 142 kts 122°
2026-04-23 19:12 -34.55541 -58.42262 39 ft 137 kts 122°
2026-04-23 19:13 -34.56017 -58.41408 25 ft 90 kts 124°
2026-04-23 19:13 -34.56183 -58.41075 28 ft 6 kts 89°
2026-04-23 19:13 -34.56147 -58.40983 25 ft 1 kts 19°
2026-04-23 19:13 -34.56104 -58.40966 30 ft 12 kts 19°
2026-04-23 19:14 -34.55994 -58.40920 27 ft 21 kts 19°
2026-04-23 19:14 -34.55862 -58.40863 29 ft 6 kts 20°
2026-04-23 19:14 -34.55824 -58.40846 25 ft 6 kts 20°
2026-04-23 19:14 -34.55806 -58.40838 25 ft 6 kts 21°